Simultaneous Nadir Overpasses (SNOs) Predictions

Prediction of SNOs between AQUA and NOAA-19 Satellite Orbit:

Table of predicted SNOs for the next 14.0 days since TLE Epoch: 3/20/2015
Index Date (AQUA) Time (AQUA) Lat,Lon (AQUA) SZA (AQUA ) Date (NOAA-19) Time (NOAA-19) Lat,Lon (NOAA-19) SZA (NOAA-19 ) Distance(km) Time Diff (sec)
1 03/20/2015 13:36:14 -79.63, 128.30 98.92 03/20/2015 13:35:57 -79.62, 128.41 98.93 2.53 17
2 03/20/2015 14:25:03 78.08, -55.06 78.93 03/20/2015 14:26:17 78.27, -54.28 79.03 27.69 74
3 03/22/2015 18:20:35 -79.75, 56.33 99.61 03/22/2015 18:19:30 -79.76, 56.20 99.57 2.64 65
4 03/22/2015 19:09:57 79.57,-134.68 80.10 03/22/2015 19:10:22 79.55,-134.56 80.07 2.60 25
5 03/24/2015 23:54:17 79.67, 153.53 79.37 03/24/2015 23:53:53 79.66, 153.60 79.37 1.61 24
6 03/25/2015 00:43:38 -79.48, -37.47 100.93 03/25/2015 00:44:51 -79.47, -37.35 100.98 2.53 73
7 03/27/2015 04:38:37 79.77, 81.65 78.66 03/27/2015 04:37:24 79.77, 81.72 78.68 1.69 73
8 03/27/2015 05:27:59 -79.62,-109.57 101.59 03/27/2015 05:28:24 -79.62,-109.62 101.59 1.07 25
9 03/29/2015 10:12:17 -79.66, 179.05 102.39 03/29/2015 10:11:53 -79.66, 179.17 102.40 2.59 24
10 03/29/2015 11:01:40 79.52, -12.30 77.39 03/29/2015 11:02:46 79.53, -12.31 77.37 0.43 66
11 03/31/2015 14:56:37 -79.79, 107.03 103.07 03/31/2015 14:55:25 -79.79, 107.05 103.04 0.40 72
12 03/31/2015 15:45:59 79.62, -84.05 76.66 03/31/2015 15:46:16 79.61, -83.96 76.65 1.88 17
13 04/02/2015 20:30:19 79.76,-156.15 76.02 04/02/2015 20:29:48 79.76,-156.23 76.04 1.49 31




NCC Satellite Simultaneous Nadir Overpasses (SNOs) Prediction Service
